User: anonymous   Login
Location: Goodsell Observatory
(44.4617°N, 93.1522°W)
Time: 00:08:32
(UTC-06:00)
Language:

Hubble Space Telescope - Orbit

View from above orbital plane
View from above orbital plane
View from above satellite
View from above satellite

Ground track
Ground track

The orbit data is extracted from the following two-line orbital elements,

1 20580U 90037B   17052.77006944  .00000723  00000-0  33807-4 0  9993
2 20580  28.4707  50.1245 0002779  17.6442 350.0148 15.08677070272835
Epoch (UTC): 21 February 2017 18:28:54
Eccentricity: 0.0002779
inclination: 28.4707°
perigee height: 538 km
apogee height: 542 km
right ascension of ascending node: 50.1245°
argument of perigee: 17.6442°
revolutions per day: 15.08677070
mean anomaly at epoch: 350.0148°
orbit number at epoch: 27283

The dashed part of the orbit path shows where the satellite is in the earth's shadow,  

DLR